Orbital Elements at Epoch 2459200.5 (2020-Dec-17.0) TDB
Reference: JPL 18 (heliocentric ecliptic J2000)
Element | Value | Uncertainty (1-sigma) | Units |
e | .1775328620375615 | 4.2477e-08 | |
a | 2.726734451352093 | 2.3138e-08 | au |
q | 2.242649480187136 | 1.1752e-07 | au |
i | 4.046673665266244 | 5.8814e-06 | deg |
node | 133.6143118785673 | 7.0958e-05 | deg |
peri | 276.4459745550499 | 7.3483e-05 | deg |
M | 184.7692549499542 | 2.2601e-05 | deg |
tp | 2460001.016893950778 (2023-Feb-25.51689395) | 0.00010993 | TDB |
period | 1644.609122331669 4.50 | 2.0934e-05 5.731e-08 | d yr |
n | .2188969981448264 | 2.7863e-09 | deg/d |
Q | 3.210819422517051 | 2.7246e-08 | au |
|
| | Orbit Determination Parameters
Additional Information
|